Location: Newark
(22.3060°N, 114.2134°E)
Time: 23:21:24
(UTC+00:00)

Explorer 11/Cluster Stage 4 - Pass Details

Date: 28 July 2021
Orbit: 467 x 1256 km, 28.8° (Epoch: 26 September)

Event Time Altitude Azimuth Distance (km) Brightness Sun altitude
Rises 07:26:34 0° 289° (WNW) 3,821 10.7 48.6°
Reaches altitude 10° 07:29:35 10° 291° (WNW) 2,743 10.3 47.9°
Maximum altitude 07:36:10 75° 17° (NNE) 860 7.5 46.4°
Drops below altitude 10° 07:41:20 10° 102° (ESE) 2,174 8.5 45.2°
Sets 07:43:30 0° 104° (ESE) 2,980 9.1 44.7°
